Corbin, Kentucky, United States (40701)
Lat: 36.95N, Lon: 84.1W
Wx Zone: KYZ085
Local Info
Past Weather Observations for Today

NOTE: This archive is for the closest National Weather Service station to Corbin. Information may differ from the station used for current weather conditions.

Click here for Long-term Archive

Time Weather Temperature Dewpoint Humidity Pressure Winds Precip Visibility
19:53
Partly Cloudy
72°F / 22°C 64°F / 18°C 78% 30.06 in
(1018 mb)
NNW 4.6 mph
(NNW 7 kph)
- 10SM
19:02
Mostly Cloudy
73°F / 23°C 64°F / 18°C 74% 30.09 in
(1019 mb)
NW 4.6 mph
(NW 7 kph)
- 10SM
18:53
Mostly Cloudy
73°F / 23°C 64°F / 18°C 74% 30.09 in
(1019 mb)
NW 5.8 mph
(NW 9 kph)
- 10SM
18:23
Mostly Cloudy
73°F / 23°C 64°F / 18°C 74% 30.06 in
(1018 mb)
W 5.8 mph
(W 9 kph)
- 10SM
17:53
Overcast
75°F / 24°C 64°F / 18°C 69% 30.06 in
(1018 mb)
N 5.8 mph
(N 9 kph)
- 10SM
17:33
Overcast
75°F / 24°C 64°F / 18°C 69% 30.06 in
(1018 mb)
NW 4.6 mph
(NW 7 kph)
- 10SM
17:25
Overcast
73°F / 23°C 64°F / 18°C 74% 30.06 in
(1018 mb)
NW 5.8 mph
(NW 9 kph)
- 10SM
16:53
Mostly Cloudy
75°F / 24°C 64°F / 18°C 69% 30.06 in
(1018 mb)
N 6.9 mph
(N 11 kph)
- 10SM
16:35
Overcast
73°F / 23°C 64°F / 18°C 74% 30.06 in
(1018 mb)
N 5.8 mph
(N 9 kph)
- 10SM
16:12
Overcast
72°F / 22°C 64°F / 18°C 78% 30.06 in
(1018 mb)
N 4.6 mph
(N 7 kph)
- 10SM
15:53
Overcast
72°F / 22°C 64°F / 18°C 78% 30.09 in
(1019 mb)
N 4.6 mph
(N 7 kph)
- 10SM
15:23
Overcast
72°F / 22°C 64°F / 18°C 78% 30.06 in
(1018 mb)
Variable 5.8 mph
(Variable 9 kph)
- 10SM
14:53
Overcast
72°F / 22°C 64°F / 18°C 78% 30.06 in
(1018 mb)
N 6.9 mph
(N 11 kph)
0.00 in
(0.00 mm)
10SM
14:35
Overcast
Light Rain
70°F / 21°C 64°F / 18°C 83% 30.09 in
(1019 mb)
N 6.9 mph
(N 11 kph)
0.00 in
(0.00 mm)
10SM
14:26
Overcast
Light Rain
70°F / 21°C 64°F / 18°C 83% 30.09 in
(1019 mb)
N 6.9 mph
(N 11 kph)
0.00 in
(0.00 mm)
10SM
14:10
Overcast
70°F / 21°C 64°F / 18°C 83% 30.09 in
(1019 mb)
N 5.8 mph
(N 9 kph)
- 10SM
14:01
Overcast
70°F / 21°C 64°F / 18°C 83% 30.09 in
(1019 mb)
N 8.1 mph
(N 13 kph)
- 10SM
13:53
Overcast
70°F / 21°C 64°F / 18°C 83% 30.09 in
(1019 mb)
N 6.9 mph
(N 11 kph)
0.12 in
(3.05 mm)
10SM
13:28
Overcast
Light Rain
68°F / 20°C 64°F / 18°C 88% 30.09 in
(1019 mb)
NE 6.9 mph
(NE 11 kph)
0.12 in
(3.05 mm)
3SM
13:15
Overcast
Rain
70°F / 21°C 64°F / 18°C 83% 30.09 in
(1019 mb)
NE 5.8 mph
(NE 9 kph)
0.11 in
(2.79 mm)
1 1/2SM
12:53
Overcast
Heavy Rain
70°F / 21°C 64°F / 18°C 83% 30.09 in
(1019 mb)
NNE 5.8 mph
(NNE 9 kph)
0.46 in
(11.68 mm)
1 3/4SM
12:50
Overcast
Heavy Rain
70°F / 21°C 64°F / 18°C 83% 30.09 in
(1019 mb)
N 8.1 mph
(N 13 kph)
0.45 in
(11.43 mm)
1 1/4SM
12:45
Overcast
Heavy Rain
70°F / 21°C 64°F / 18°C 83% 30.09 in
(1019 mb)
NNE 6.9 mph
(NNE 11 kph)
0.41 in
(10.41 mm)
1SM
12:41
Overcast
Heavy Rain
70°F / 21°C 64°F / 18°C 83% 30.09 in
(1019 mb)
NNE 5.8 mph
(NNE 9 kph)
0.40 in
(10.16 mm)
3/4SM
12:34
Overcast
Heavy Rain
70°F / 21°C 64°F / 18°C 83% 30.09 in
(1019 mb)
NE 5.8 mph
(NE 9 kph)
0.30 in
(7.62 mm)
3/4SM
12:28
Overcast
Heavy Rain
70°F / 21°C 64°F / 18°C 83% 30.09 in
(1019 mb)
NE 4.6 mph
(NE 7 kph)
0.19 in
(4.83 mm)
1SM
12:21
Overcast
Heavy Rain
70°F / 21°C 64°F / 18°C 83% 30.09 in
(1019 mb)
Variable 6.9 mph
(Variable 11 kph)
0.10 in
(2.54 mm)
1SM
12:14
Overcast
Rain
70°F / 21°C 64°F / 18°C 83% 30.09 in
(1019 mb)
NE 4.6 mph
(NE 7 kph)
0.02 in
(0.51 mm)
2SM
11:53
Overcast
Light Rain
70°F / 21°C 64°F / 18°C 83% 30.09 in
(1019 mb)
N 8.1 mph
(N 13 kph)
0.06 in
(1.52 mm)
6SM
11:37
Overcast
Light Rain
70°F / 21°C 64°F / 18°C 83% 30.09 in
(1019 mb)
N 5.8 mph
(N 9 kph)
0.05 in
(1.27 mm)
4SM
11:08
Overcast
Rain
70°F / 21°C 64°F / 18°C 83% 30.09 in
(1019 mb)
NNE 6.9 mph
(NNE 11 kph)
0.01 in
(0.25 mm)
5SM
10:53
Overcast
Light Rain
70°F / 21°C 64°F / 18°C 83% 30.09 in
(1019 mb)
N 6.9 mph
(N 11 kph)
0.04 in
(1.02 mm)
4SM
10:50
Overcast
Light Rain
70°F / 21°C 64°F / 18°C 83% 30.09 in
(1019 mb)
NNE 8.1 mph
(NNE 13 kph)
0.04 in
(1.02 mm)
5SM
10:39
Overcast
Light Rain
70°F / 21°C 64°F / 18°C 83% 30.09 in
(1019 mb)
N 5.8 mph
(N 9 kph)
0.04 in
(1.02 mm)
5SM
10:08
Overcast
Light Rain
70°F / 21°C 63°F / 17°C 78% 30.09 in
(1019 mb)
NNE 5.8 mph
(NNE 9 kph)
0.04 in
(1.02 mm)
3SM
10:01
Overcast
Rain
70°F / 21°C 63°F / 17°C 78% 30.09 in
(1019 mb)
NE 5.8 mph
(NE 9 kph)
0.03 in
(0.76 mm)
1 1/4SM
09:53
Overcast
Rain
70°F / 21°C 64°F / 18°C 83% 30.09 in
(1019 mb)
ENE 4.6 mph
(ENE 7 kph)
0.26 in
(6.60 mm)
2SM
09:50
Overcast
Light Rain
70°F / 21°C 64°F / 18°C 83% 30.09 in
(1019 mb)
ENE 6.9 mph
(ENE 11 kph)
0.25 in
(6.35 mm)
2 1/2SM
09:41
Overcast
Rain
70°F / 21°C 64°F / 18°C 83% 30.09 in
(1019 mb)
NE 5.8 mph
(NE 9 kph)
0.24 in
(6.10 mm)
2SM
09:27
Overcast
Rain
70°F / 21°C 64°F / 18°C 83% 30.09 in
(1019 mb)
N 4.6 mph
(N 7 kph)
0.19 in
(4.83 mm)
1 1/2SM
09:18
Overcast
Heavy Rain
68°F / 20°C 64°F / 18°C 88% 30.09 in
(1019 mb)
NNE 4.6 mph
(NNE 7 kph)
0.16 in
(4.06 mm)
3/4SM
09:11
Overcast
Heavy Rain
70°F / 21°C 64°F / 18°C 83% 30.09 in
(1019 mb)
Calm 0.06 in
(1.52 mm)
1 3/4SM
08:53
Overcast
Rain
70°F / 21°C 64°F / 18°C 83% 30.09 in
(1019 mb)
Calm 0.15 in
(3.81 mm)
3SM
08:23
Overcast
Rain
68°F / 20°C 64°F / 18°C 88% 30.09 in
(1019 mb)
Calm 0.10 in
(2.54 mm)
3SM
08:06
Overcast
Rain
68°F / 20°C 64°F / 18°C 88% 30.09 in
(1019 mb)
NE 3.5 mph
(NE 6 kph)
0.04 in
(1.02 mm)
4SM
07:53
Overcast
Heavy Rain
68°F / 20°C 64°F / 18°C 88% 30.09 in
(1019 mb)
NNE 5.8 mph
(NNE 9 kph)
0.08 in
(2.03 mm)
4SM
07:46
Overcast
Rain
68°F / 20°C 64°F / 18°C 88% 30.09 in
(1019 mb)
NNE 5.8 mph
(NNE 9 kph)
0.06 in
(1.52 mm)
5SM
06:53
Mostly Cloudy
Light Rain
68°F / 20°C 64°F / 18°C 88% 30.09 in
(1019 mb)
NE 3.5 mph
(NE 6 kph)
0.01 in
(0.25 mm)
8SM
05:53
Mostly Cloudy
Light Rain
66°F / 19°C 63°F / 17°C 88% 30.06 in
(1018 mb)
Calm 0.04 in
(1.02 mm)
10SM
05:14
Mostly Cloudy
Light Rain
66°F / 19°C 63°F / 17°C 88% 30.06 in
(1018 mb)
E 3.5 mph
(E 6 kph)
0.01 in
(0.25 mm)
10SM
04:53
Overcast
Light Rain
66°F / 19°C 63°F / 17°C 88% 30.06 in
(1018 mb)
Calm 0.13 in
(3.30 mm)
8SM
04:40
Overcast
Light Rain
66°F / 19°C 63°F / 17°C 88% 30.06 in
(1018 mb)
SE 3.5 mph
(SE 6 kph)
0.11 in
(2.79 mm)
9SM
04:11
Overcast
Rain
68°F / 20°C 63°F / 17°C 83% 30.06 in
(1018 mb)
Calm 0.05 in
(1.27 mm)
3SM
03:53
Overcast
Thunder Storms
66°F / 19°C 63°F / 17°C 88% 30.06 in
(1018 mb)
SW 3.5 mph
(SW 6 kph)
0.38 in
(9.65 mm)
4SM
03:43
Overcast
Rain
68°F / 20°C 63°F / 17°C 83% 30.06 in
(1018 mb)
SSE 5.8 mph
(SSE 9 kph)
0.35 in
(8.89 mm)
4SM
03:22
Overcast
Heavy Rain
68°F / 20°C 63°F / 17°C 83% 30.06 in
(1018 mb)
SSW 4.6 mph
(SSW 7 kph)
0.28 in
(7.11 mm)
2 1/2SM
03:11
Overcast
Heavy Rain
68°F / 20°C 63°F / 17°C 83% 30.06 in
(1018 mb)
S 6.9 mph
(S 11 kph)
0.22 in
(5.59 mm)
1 1/2SM
03:03
Overcast
Thunder Storms
70°F / 21°C 64°F / 18°C 83% 30.06 in
(1018 mb)
S 11.5 mph
(S 19 kph)
0.11 in
(2.79 mm)
2 1/2SM
02:59
Overcast
Thunder Storms
70°F / 21°C 64°F / 18°C 83% 30.06 in
(1018 mb)
S 9.2 mph
(S 15 kph)
0.03 in
(0.76 mm)
4SM
02:50
Mostly Cloudy
Thunder Storms
70°F / 21°C 66°F / 19°C 88% 30.06 in
(1018 mb)
S 6.9 mph
(S 11 kph)
0.01 in
(0.25 mm)
6SM
02:49
Mostly Cloudy
Thunder Storms
70°F / 21°C 66°F / 19°C 88% 30.06 in
(1018 mb)
S 6.9 mph
(S 11 kph)
0.01 in
(0.25 mm)
7SM
02:00
Overcast
Thunder Storms
70°F / 21°C 64°F / 18°C 83% 30.06 in
(1018 mb)
Calm - 10SM
01:53
Overcast
72°F / 22°C 64°F / 18°C 78% 30.06 in
(1018 mb)
SE 3.5 mph
(SE 6 kph)
- 10SM
00:53
Mostly Cloudy
72°F / 22°C 64°F / 18°C 78% 30.06 in
(1018 mb)
Calm - 10SM
Time Weather Temperature Dewpoint Humidity Pressure Winds Precip Visibility


Weather for websites

WeatherForYou.com, LLC is not responsible for any damages or problems caused by this service. Current weather conditions are obtained from the closest station including government and personal stations which may have varying degrees of accuracy. Weather forecasts are derived from the NOAA NDFD. Like all things, this site belongs to Jesus Christ... He just trusts us to maintain it. If you have any questions or comments email webmaster@weatherforyou.com

Copyright © 2015, WeatherForYou.com LLC. All rights reserved.